Location: Cahas Mountain Overlook
(37.0833°N, 80.1000°W)
Time: 18:24:17
(UTC-04:00)

SR - Pass Details

Date: 13 February 2026
Orbit: 572 x 849 km, 66.7° (Epoch: 12 March)

Event Time Altitude Azimuth Distance (km) Brightness Sun altitude
Rises 15:57:56 0° 318° (NW) 3,132 ? 20.7°
Reaches altitude 10° 16:00:32 10° 307° (NW) 2,255 ? 20.3°
Maximum altitude 16:04:49 27° 251° (WSW) 1,463 ? 19.6°
Drops below altitude 10° 16:09:20 10° 195° (SSW) 2,380 ? 18.9°
Sets 16:12:10 0° 183° (S) 3,340 ? 18.4°
